Location: Unspecified
(0.0000°N, 0.0000°E)
Time: 18:42:59
(UTC+00:00)

Vanguard 1 - Visible Passes

Search period start: 26 May 2022 00:00
Search period end: 05 June 2022 00:00
Orbit: 648 x 3833 km, 34.3° (Epoch: 25 May)

Date Brightness Start Highest point End Pass type
(mag) Time Alt. Az. Time Alt. Az. Time Alt. Az.
26 May 13.2 00:33:34 25° N 00:33:34 25° N 00:44:45 10° NNE visible
26 May 13.8 02:51:05 10° NW 03:02:07 18° N 03:15:33 10° NE visible
26 May 14.2 05:18:47 10° NNW 05:36:42 27° NNE 05:53:16 10° ENE visible
26 May 13.6 22:39:46 11° NE 22:39:46 11° NE 22:40:01 10° NE visible
27 May 13.3 00:52:24 21° NNW 00:53:31 21° NNW 01:05:52 10° NNE visible
27 May 13.9 03:13:54 10° NNW 03:25:45 18° N 03:39:36 10° NE visible
27 May 13.5 22:58:34 15° NNE 22:58:34 15° NNE 23:00:53 10° NE visible
28 May 13.4 01:11:11 15° NNW 01:16:12 18° N 01:27:20 10° NNE visible
28 May 14.0 03:36:03 10° NNW 03:49:21 20° NNE 04:04:20 10° NE visible
28 May 13.3 23:17:19 18° NNE 23:17:19 18° NNE 23:21:36 10° NNE visible
29 May 13.6 01:31:08 10° NW 01:39:11 16° N 01:49:29 10° NNE visible
29 May 14.1 03:57:39 10° NNW 04:12:44 23° NNE 04:29:08 10° ENE visible
29 May 11.1 18:46:00 10° S 18:48:47 15° SE 18:49:30 15° SE visible
29 May 13.3 23:36:01 18° N 23:36:01 18° N 23:42:14 10° NNE visible
30 May 13.8 01:54:04 10° NNW 02:02:26 15° N 02:12:47 10° NE visible
30 May 14.1 04:18:49 10° NNW 04:35:48 27° NNE 04:53:32 10° ENE visible
30 May 10.4 19:05:23 10° SSW 19:09:22 28° SE 19:10:09 27° SE visible
30 May12.921:42:02NE21:42:02NE21:22:57WSWvisible
30 May 13.3 23:54:38 16° NNW 23:54:56 16° N 00:02:53 10° NNE visible
31 May 13.9 02:16:21 10° NNW 02:25:48 16° N 02:37:19 10° NE visible
31 May 14.1 04:39:44 10° NNW 04:58:29 33° NNE 05:17:17 10° E visible
31 May 9.7 19:25:27 10° SW 19:29:56 51° SE 19:31:03 44° ESE visible
31 May13.222:00:33NNE22:00:33NNE21:43:53Wvisible
01 Jun 13.4 00:13:08 11° NNW 00:17:28 13° N 00:23:48 10° NNE visible
01 Jun 14.0 02:37:54 10° NNW 02:49:06 18° NNE 03:02:38 10° NE visible
01 Jun 14.1 05:00:32 10° NNW 05:20:50 41° NNE 05:40:22 10° E visible
01 Jun 9.5 19:45:56 10° SW 19:50:35 88° NW 19:52:16 49° NE visible
01 Jun 13.3 22:18:52 12° NNE 22:18:52 12° NNE 22:19:56 10° NNE visible
02 Jun 13.7 00:35:50 10° NNW 00:40:15 12° N 00:45:27 10° NNE visible
02 Jun 14.0 02:58:57 10° NNW 03:12:11 22° NNE 03:27:59 10° ENE visible
02 Jun 13.9 05:21:18 10° NW 05:42:54 50° NE 06:02:51 10° ESE visible
02 Jun 10.4 20:06:46 10° WSW 20:11:26 51° NNW 20:14:02 32° NNE visible
02 Jun 13.1 22:36:47 13° N 22:36:47 13° N 22:39:54 10° NNE visible
03 Jun 13.8 00:58:30 10° N 01:03:15 12° N 01:08:47 10° NNE visible
03 Jun 14.0 03:19:42 10° NNW 03:34:56 27° NNE 03:52:49 10° ENE visible
03 Jun 11.4 20:28:03 10° W 20:32:30 31° NNW 20:37:26 15° NNE visible
03 Jun 13.3 22:54:56 10° NNW 22:56:51 11° N 22:58:57 10° N visible
04 Jun 13.9 01:19:55 10° N 01:26:19 13° NNE 01:34:00 10° NE visible
04 Jun 14.0 03:40:19 10° NNW 03:57:20 33° NNE 04:16:54 10° E visible
04 Jun 9.4 18:28:34 10° SW 18:32:51 53° SE 18:37:59 10° ENE visible
04 Jun 12.1 20:49:52 10° WNW 20:53:49 20° NNW 20:59:10 10° NNE visible
